Time,TemperatureF,DewpointF,PressureIn,WindDirection,WindDirectionDegrees,WindSpeedMPH,WindSpeedGustMPH,Humidity,HourlyPrecipIn,Conditions,Clouds,dailyrainin,SoftwareType,DateUTC
2013-10-18 00:01:00,56.1,42.4,29.87,West,262,4.5,6.7,60,0.00,,SCT040,0.00,VWS V13.01,2013-10-18 04:01:00,
2013-10-18 00:02:00,56.1,42.4,29.87,West,270,3.4,5.0,60,0.00,,SCT040,0.00,VWS V13.01,2013-10-18 04:02:00,
2013-10-18 00:07:00,56.3,42.6,29.87,West,267,3.4,4.5,60,0.00,,SCT040,0.00,VWS V13.01,2013-10-18 04:07:00,
2013-10-18 00:12:00,56.5,42.8,29.90,North,357,4.5,4.5,60,0.00,,SCT040,0.00,VWS V13.01,2013-10-18 04:12:00,
2013-10-18 00:17:00,56.7,43.0,29.90,West,275,3.4,3.9,60,0.00,,SCT040,0.00,VWS V13.01,2013-10-18 04:17:00,
2013-10-18 00:22:00,56.5,42.8,29.90,NNE,18,3.9,6.7,60,0.00,,CLR,0.00,VWS V13.01,2013-10-18 04:22:00,
2013-10-18 00:27:00,56.7,41.6,29.90,West,272,6.2,6.7,57,0.00,,CLR,0.00,VWS V13.01,2013-10-18 04:27:00,
2013-10-18 00:32:00,56.7,40.7,29.90,West,271,5.0,7.8,55,0.00,,CLR,0.00,VWS V13.01,2013-10-18 04:32:00,
2013-10-18 00:37:00,56.5,40.0,29.90,WSW,252,5.0,6.7,54,0.00,,CLR,0.00,VWS V13.01,2013-10-18 04:37:00,
2013-10-18 00:42:00,56.1,39.7,29.90,West,271,6.7,9.5,54,0.00,,BKN039,0.00,VWS V13.01,2013-10-18 04:42:00,
2013-10-18 00:47:00,55.8,39.4,29.90,WNW,287,3.9,7.8,54,0.00,,BKN039,0.00,VWS V13.01,2013-10-18 04:47:00,
2013-10-18 00:52:00,55.4,38.6,29.90,NW,316,7.3,7.3,53,0.00,,BKN039,0.00,VWS V13.01,2013-10-18 04:52:00,
2013-10-18 00:57:00,55.2,38.9,29.90,West,269,7.3,10.3,54,0.00,,BKN039,0.00,VWS V13.01,2013-10-18 04:57:00,
2013-10-18 01:02:00,54.9,38.5,29.90,West,272,6.7,7.8,54,0.00,,OVC039,0.00,VWS V13.01,2013-10-18 05:02:00,
2013-10-18 01:07:00,54.5,38.2,29.90,NW,306,6.7,9.5,54,0.00,,OVC039,0.00,VWS V13.01,2013-10-18 05:07:00,
2013-10-18 01:12:00,54.5,38.2,29.90,WNW,283,6.7,7.8,54,0.00,,OVC039,0.00,VWS V13.01,2013-10-18 05:12:00,
2013-10-18 01:17:00,54.3,38.0,29.90,WNW,282,7.8,7.8,54,0.00,,OVC039,0.00,VWS V13.01,2013-10-18 05:17:00,
2013-10-18 01:22:00,54.3,37.6,29.90,West,277,7.3,8.9,53,0.00,,OVC039,0.00,VWS V13.01,2013-10-18 05:22:00,
2013-10-18 01:27:00,54.1,37.4,29.90,WNW,299,7.3,7.3,53,0.00,,OVC039,0.00,VWS V13.01,2013-10-18 05:27:00,
2013-10-18 01:32:00,54.0,37.2,29.90,West,275,3.9,5.0,53,0.00,,OVC039,0.00,VWS V13.01,2013-10-18 05:32:00,
2013-10-18 01:37:00,53.6,36.9,29.90,West,265,5.0,5.0,53,0.00,,OVC039,0.00,VWS V13.01,2013-10-18 05:37:00,
2013-10-18 01:42:00,53.2,37.0,29.90,West,267,2.8,6.7,54,0.00,,OVC039,0.00,VWS V13.01,2013-10-18 05:42:00,
2013-10-18 01:47:00,52.9,36.7,29.90,West,271,3.9,5.0,54,0.00,,OVC039,0.00,VWS V13.01,2013-10-18 05:47:00,
2013-10-18 01:52:00,52.7,36.5,29.90,West,273,3.9,4.5,54,0.00,,OVC039,0.00,VWS V13.01,2013-10-18 05:52:00,
2013-10-18 01:57:00,52.5,36.4,29.90,West,261,3.4,5.0,54,0.00,,OVC039,0.00,VWS V13.01,2013-10-18 05:57:00,
2013-10-18 02:02:00,52.7,36.5,29.90,WNW,283,3.4,5.0,54,0.00,,BKN047,0.00,VWS V13.01,2013-10-18 06:02:00,
2013-10-18 02:07:00,52.9,36.7,29.90,WSW,254,6.7,7.8,54,0.00,,BKN047,0.00,VWS V13.01,2013-10-18 06:07:00,
2013-10-18 02:12:00,52.9,36.2,29.93,WNW,289,7.8,9.5,53,0.00,,BKN047,0.00,VWS V13.01,2013-10-18 06:12:00,
2013-10-18 02:17:00,53.1,35.9,29.93,WSW,250,6.7,15.9,52,0.00,,BKN047,0.00,VWS V13.01,2013-10-18 06:17:00,
2013-10-18 02:22:00,53.1,35.9,29.93,WSW,253,6.7,7.3,52,0.00,,CLR,0.00,VWS V13.01,2013-10-18 06:22:00,
2013-10-18 02:27:00,53.1,35.9,29.93,West,268,7.8,10.1,52,0.00,,CLR,0.00,VWS V13.01,2013-10-18 06:27:00,
2013-10-18 02:32:00,52.9,35.8,29.93,West,272,7.3,7.3,52,0.00,,CLR,0.00,VWS V13.01,2013-10-18 06:32:00,
2013-10-18 02:37:00,52.3,35.2,29.93,NNW,328,6.7,6.7,52,0.00,,CLR,0.00,VWS V13.01,2013-10-18 06:37:00,
2013-10-18 02:42:00,52.0,34.9,29.93,NW,311,5.0,5.0,52,0.00,,SCT044,0.00,VWS V13.01,2013-10-18 06:42:00,
2013-10-18 02:47:00,51.6,34.6,29.93,SW,230,2.8,3.9,52,0.00,,SCT044,0.00,VWS V13.01,2013-10-18 06:47:00,
2013-10-18 02:52:00,51.3,34.2,29.93,WNW,286,3.4,3.9,52,0.00,,SCT044,0.00,VWS V13.01,2013-10-18 06:52:00,
2013-10-18 02:57:00,51.1,34.6,29.93,West,261,3.4,5.0,53,0.00,,SCT044,0.00,VWS V13.01,2013-10-18 06:57:00,
2013-10-18 03:02:00,51.1,34.6,29.93,WNW,291,0.0,0.0,53,0.00,,SCT044,0.00,VWS V13.01,2013-10-18 07:02:00,
2013-10-18 03:07:00,50.9,34.4,29.93,WNW,291,0.0,0.0,53,0.00,,SCT044,0.00,VWS V13.01,2013-10-18 07:07:00,
2013-10-18 03:12:00,50.5,34.1,29.93,WNW,291,0.0,0.0,53,0.00,,SCT044,0.00,VWS V13.01,2013-10-18 07:12:00,
2013-10-18 03:17:00,50.2,33.7,29.93,WNW,291,0.0,0.0,53,0.00,,SCT044,0.00,VWS V13.01,2013-10-18 07:17:00,
2013-10-18 03:22:00,49.5,33.1,29.93,WNW,291,0.0,0.0,53,0.00,,CLR,0.00,VWS V13.01,2013-10-18 07:22:00,
2013-10-18 03:27:00,49.1,32.7,29.93,WNW,291,0.0,0.0,53,0.00,,CLR,0.00,VWS V13.01,2013-10-18 07:27:00,
2013-10-18 03:32:00,48.7,32.8,29.93,WNW,291,0.0,0.0,54,0.00,,CLR,0.00,VWS V13.01,2013-10-18 07:32:00,
2013-10-18 03:37:00,48.2,32.3,29.93,WNW,291,0.0,0.0,54,0.00,,CLR,0.00,VWS V13.01,2013-10-18 07:37:00,
2013-10-18 03:42:00,47.7,32.8,29.93,WNW,291,0.0,0.0,56,0.00,,CLR,0.00,VWS V13.01,2013-10-18 07:42:00,
2013-10-18 03:47:00,47.3,32.4,29.93,WNW,291,0.0,0.0,56,0.00,,CLR,0.00,VWS V13.01,2013-10-18 07:47:00,
2013-10-18 03:52:00,47.1,32.7,29.93,WNW,291,0.0,0.0,57,0.00,,CLR,0.00,VWS V13.01,2013-10-18 07:52:00,
2013-10-18 03:57:00,46.9,33.0,29.93,WNW,291,0.0,0.0,58,0.00,,CLR,0.00,VWS V13.01,2013-10-18 07:57:00,
2013-10-18 04:02:00,46.8,32.8,29.93,WNW,291,0.0,0.0,58,0.00,,CLR,0.00,VWS V13.01,2013-10-18 08:02:00,
2013-10-18 04:07:00,46.6,33.0,29.93,WNW,291,0.0,0.0,59,0.00,,CLR,0.00,VWS V13.01,2013-10-18 08:07:00,
2013-10-18 04:12:00,46.2,33.1,29.93,WNW,291,0.0,0.0,60,0.00,,CLR,0.00,VWS V13.01,2013-10-18 08:12:00,
2013-10-18 04:17:00,46.0,33.0,29.93,NW,310,0.0,0.0,60,0.00,,CLR,0.00,VWS V13.01,2013-10-18 08:17:00,
2013-10-18 04:22:00,46.0,33.8,29.93,NW,310,0.0,0.0,62,0.00,,CLR,0.00,VWS V13.01,2013-10-18 08:22:00,
2013-10-18 04:27:00,46.0,33.8,29.93,NW,310,0.0,0.0,62,0.00,,CLR,0.00,VWS V13.01,2013-10-18 08:27:00,
2013-10-18 04:32:00,46.6,34.3,29.93,WSW,258,2.8,3.4,62,0.00,,CLR,0.00,VWS V13.01,2013-10-18 08:32:00,
2013-10-18 04:37:00,46.9,35.0,29.93,WSW,257,3.4,3.9,63,0.00,,CLR,0.00,VWS V13.01,2013-10-18 08:37:00,
2013-10-18 04:42:00,47.7,35.7,29.93,West,259,0.0,0.0,63,0.00,,CLR,0.00,VWS V13.01,2013-10-18 08:42:00,
2013-10-18 04:47:00,48.2,35.8,29.93,South,190,0.0,4.5,62,0.00,,CLR,0.00,VWS V13.01,2013-10-18 08:47:00,
2013-10-18 04:52:00,48.6,36.2,29.93,SW,221,0.0,0.0,62,0.00,,CLR,0.00,VWS V13.01,2013-10-18 08:52:00,
2013-10-18 04:57:00,48.6,35.7,29.93,WSW,253,3.9,3.9,61,0.00,,CLR,0.00,VWS V13.01,2013-10-18 08:57:00,
2013-10-18 05:02:00,48.6,35.3,29.93,WSW,241,3.4,3.4,60,0.00,,CLR,0.00,VWS V13.01,2013-10-18 09:02:00,
2013-10-18 05:07:00,48.6,35.3,29.93,WSW,257,3.9,5.0,60,0.00,,CLR,0.00,VWS V13.01,2013-10-18 09:07:00,
2013-10-18 05:12:00,48.6,35.3,29.93,West,267,3.9,3.9,60,0.00,,CLR,0.00,VWS V13.01,2013-10-18 09:12:00,
2013-10-18 05:17:00,48.6,35.3,29.93,West,266,5.0,5.0,60,0.00,,CLR,0.00,VWS V13.01,2013-10-18 09:17:00,
2013-10-18 05:22:00,48.4,35.2,29.93,WNW,295,3.9,6.7,60,0.00,,CLR,0.00,VWS V13.01,2013-10-18 09:22:00,
2013-10-18 05:27:00,48.2,35.0,29.93,WNW,299,3.4,6.2,60,0.00,,CLR,0.00,VWS V13.01,2013-10-18 09:27:00,
2013-10-18 05:32:00,48.2,35.4,29.93,WNW,282,3.4,5.0,61,0.00,,CLR,0.00,VWS V13.01,2013-10-18 09:32:00,
2013-10-18 05:37:00,48.2,35.4,29.93,West,280,0.0,0.0,61,0.00,,CLR,0.00,VWS V13.01,2013-10-18 09:37:00,
2013-10-18 05:42:00,48.2,35.4,29.96,West,273,0.0,0.0,61,0.00,,CLR,0.00,VWS V13.01,2013-10-18 09:42:00,
2013-10-18 05:47:00,48.2,35.4,29.96,WSW,255,0.0,0.0,61,0.00,,CLR,0.00,VWS V13.01,2013-10-18 09:47:00,
2013-10-18 05:52:00,48.2,35.4,29.96,NW,308,0.0,4.5,61,0.00,,CLR,0.00,VWS V13.01,2013-10-18 09:52:00,
2013-10-18 05:57:00,48.0,35.6,29.96,NW,312,0.0,2.8,62,0.00,,CLR,0.00,VWS V13.01,2013-10-18 09:57:00,
2013-10-18 06:02:00,48.0,35.6,29.96,WNW,287,3.4,4.5,62,0.00,,CLR,0.00,VWS V13.01,2013-10-18 10:02:00,
2013-10-18 06:07:00,48.0,35.6,29.96,West,259,6.7,7.3,62,0.00,,CLR,0.00,VWS V13.01,2013-10-18 10:07:00,
2013-10-18 06:12:00,48.4,33.9,29.96,WSW,253,8.4,8.4,57,0.00,,CLR,0.00,VWS V13.01,2013-10-18 10:12:00,
2013-10-18 06:17:00,48.9,33.5,29.96,West,273,7.8,9.5,55,0.00,,CLR,0.00,VWS V13.01,2013-10-18 10:17:00,
2013-10-18 06:22:00,49.3,33.4,29.96,West,270,6.7,8.9,54,0.00,,CLR,0.00,VWS V13.01,2013-10-18 10:22:00,
2013-10-18 06:27:00,49.3,33.4,29.96,SW,236,6.7,6.7,54,0.00,,CLR,0.00,VWS V13.01,2013-10-18 10:27:00,
2013-10-18 06:32:00,49.1,32.7,29.96,West,267,4.5,7.3,53,0.00,,CLR,0.00,VWS V13.01,2013-10-18 10:32:00,
2013-10-18 06:37:00,48.9,32.6,29.96,West,263,3.4,6.2,53,0.00,,CLR,0.00,VWS V13.01,2013-10-18 10:37:00,
2013-10-18 06:42:00,48.6,32.2,29.96,West,277,0.0,0.0,53,0.00,,CLR,0.00,VWS V13.01,2013-10-18 10:42:00,
2013-10-18 06:47:00,48.2,31.9,29.96,West,277,0.0,0.0,53,0.00,,CLR,0.00,VWS V13.01,2013-10-18 10:47:00,
2013-10-18 06:52:00,47.7,31.9,29.96,West,277,0.0,0.0,54,0.00,,CLR,0.00,VWS V13.01,2013-10-18 10:52:00,
2013-10-18 06:57:00,47.3,31.5,29.96,West,277,0.0,0.0,54,0.00,,CLR,0.00,VWS V13.01,2013-10-18 10:57:00,
2013-10-18 07:02:00,46.9,31.2,29.96,South,186,0.0,0.0,54,0.00,,CLR,0.00,VWS V13.01,2013-10-18 11:02:00,
2013-10-18 07:07:00,46.4,30.7,29.96,East,96,0.0,0.0,54,0.00,,CLR,0.00,VWS V13.01,2013-10-18 11:07:00,
2013-10-18 07:12:00,46.0,30.3,29.96,NNW,348,2.8,2.8,54,0.00,,CLR,0.00,VWS V13.01,2013-10-18 11:12:00,
2013-10-18 07:17:00,46.0,30.8,29.96,NW,323,0.0,0.0,55,0.00,,CLR,0.00,VWS V13.01,2013-10-18 11:17:00,
2013-10-18 07:22:00,46.0,30.8,29.96,West,263,3.9,3.9,55,0.00,,CLR,0.00,VWS V13.01,2013-10-18 11:22:00,
2013-10-18 07:27:00,46.4,31.1,29.96,West,265,5.0,5.6,55,0.00,,CLR,0.00,VWS V13.01,2013-10-18 11:27:00,
2013-10-18 07:32:00,46.9,31.6,29.96,West,272,4.5,6.7,55,0.00,,CLR,0.00,VWS V13.01,2013-10-18 11:32:00,
2013-10-18 07:37:00,47.5,31.7,29.96,WSW,251,6.2,6.7,54,0.00,,CLR,0.00,VWS V13.01,2013-10-18 11:37:00,
2013-10-18 07:42:00,48.2,31.9,29.96,West,267,6.2,7.3,53,0.00,,CLR,0.00,VWS V13.01,2013-10-18 11:42:00,
2013-10-18 07:47:00,48.4,32.0,29.96,West,280,4.5,4.5,53,0.00,,CLR,0.00,VWS V13.01,2013-10-18 11:47:00,
2013-10-18 07:52:00,48.4,32.0,29.96,WNW,284,0.0,2.8,53,0.00,,CLR,0.00,VWS V13.01,2013-10-18 11:52:00,
2013-10-18 07:57:00,48.0,32.2,29.99,NNW,328,0.0,0.0,54,0.00,,CLR,0.00,VWS V13.01,2013-10-18 11:57:00,
2013-10-18 08:02:00,47.7,31.9,29.99,NNW,329,0.0,0.0,54,0.00,,CLR,0.00,VWS V13.01,2013-10-18 12:02:00,
2013-10-18 08:07:00,47.8,32.0,29.99,NNW,329,0.0,0.0,54,0.00,,CLR,0.00,VWS V13.01,2013-10-18 12:07:00,
2013-10-18 08:12:00,48.0,32.2,29.99,NNW,329,0.0,0.0,54,0.00,,CLR,0.00,VWS V13.01,2013-10-18 12:12:00,
2013-10-18 08:17:00,48.4,32.5,29.99,West,264,3.4,3.4,54,0.00,,CLR,0.00,VWS V13.01,2013-10-18 12:17:00,
2013-10-18 08:22:00,48.7,33.3,29.99,West,264,0.0,0.0,55,0.00,,CLR,0.00,VWS V13.01,2013-10-18 12:22:00,
2013-10-18 08:27:00,49.5,34.0,29.99,West,264,0.0,0.0,55,0.00,,CLR,0.00,VWS V13.01,2013-10-18 12:27:00,
2013-10-18 08:32:00,50.2,34.7,29.99,WSW,253,0.0,0.0,55,0.00,,CLR,0.00,VWS V13.01,2013-10-18 12:32:00,
2013-10-18 08:37:00,50.9,34.4,29.99,WSW,246,3.9,3.9,53,0.00,,CLR,0.00,VWS V13.01,2013-10-18 12:37:00,
2013-10-18 08:42:00,51.4,34.9,30.02,WSW,251,0.0,0.0,53,0.00,,CLR,0.00,VWS V13.01,2013-10-18 12:42:00,
2013-10-18 08:47:00,52.0,34.9,30.02,WSW,251,0.0,3.4,52,0.00,,CLR,0.00,VWS V13.01,2013-10-18 12:47:00,
2013-10-18 08:52:00,52.5,35.4,30.02,WSW,246,2.8,3.9,52,0.00,,CLR,0.00,VWS V13.01,2013-10-18 12:52:00,
2013-10-18 08:57:00,53.1,35.9,30.02,WSW,255,0.0,3.4,52,0.00,,CLR,0.00,VWS V13.01,2013-10-18 12:57:00,
2013-10-18 09:02:00,53.8,36.1,30.02,WSW,255,0.0,2.8,51,0.00,,CLR,0.00,VWS V13.01,2013-10-18 13:02:00,
2013-10-18 09:07:00,54.5,36.8,30.02,South,186,3.9,4.5,51,0.00,,CLR,0.00,VWS V13.01,2013-10-18 13:07:00,
2013-10-18 09:12:00,55.0,37.3,30.02,SSE,159,3.4,6.2,51,0.00,,CLR,0.00,VWS V13.01,2013-10-18 13:12:00,
2013-10-18 09:17:00,55.0,37.3,30.02,WSW,250,5.0,5.0,51,0.00,,CLR,0.00,VWS V13.01,2013-10-18 13:17:00,
2013-10-18 09:22:00,54.9,37.1,30.02,South,173,3.9,5.0,51,0.00,,CLR,0.00,VWS V13.01,2013-10-18 13:22:00,
2013-10-18 09:26:00,55.0,37.3,30.02,SSW,211,2.8,3.4,51,0.00,,CLR,0.00,VWS V13.01,2013-10-18 13:26:00,
2013-10-18 09:31:00,55.6,37.2,30.02,West,261,4.5,4.5,50,0.00,,CLR,0.00,VWS V13.01,2013-10-18 13:31:00,
2013-10-18 09:36:00,56.1,37.8,30.02,WSW,257,2.8,3.4,50,0.00,,CLR,0.00,VWS V13.01,2013-10-18 13:36:00,
2013-10-18 09:41:00,56.7,38.2,30.02,WSW,256,0.0,3.4,50,0.00,,CLR,0.00,VWS V13.01,2013-10-18 13:41:00,
2013-10-18 09:46:00,56.7,38.2,30.02,West,262,0.0,4.5,50,0.00,,CLR,0.00,VWS V13.01,2013-10-18 13:46:00,
2013-10-18 09:51:00,57.0,38.6,30.02,West,270,3.4,3.4,50,0.00,,CLR,0.00,VWS V13.01,2013-10-18 13:51:00,
2013-10-18 09:56:00,57.4,38.4,30.02,West,264,0.0,3.4,49,0.00,,CLR,0.00,VWS V13.01,2013-10-18 13:56:00,
2013-10-18 10:01:00,57.0,38.6,30.02,North,357,0.0,0.0,50,0.00,,CLR,0.00,VWS V13.01,2013-10-18 14:01:00,
2013-10-18 10:07:00,56.8,38.4,30.02,East,82,2.8,3.4,50,0.00,,CLR,0.00,VWS V13.01,2013-10-18 14:07:00,
2013-10-18 10:12:00,57.2,37.2,30.02,WSW,251,0.0,2.8,47,0.00,,CLR,0.00,VWS V13.01,2013-10-18 14:12:00,
2013-10-18 10:17:00,57.6,38.6,30.02,West,266,10.1,10.1,49,0.00,,CLR,0.00,VWS V13.01,2013-10-18 14:17:00,
2013-10-18 10:22:00,57.9,37.8,30.02,North,2,3.4,3.9,47,0.00,,CLR,0.00,VWS V13.01,2013-10-18 14:22:00,
2013-10-18 10:27:00,57.7,37.7,30.02,North,4,0.0,0.0,47,0.00,,CLR,0.00,VWS V13.01,2013-10-18 14:27:00,
2013-10-18 10:32:00,57.9,37.8,30.02,WSW,247,0.0,4.5,47,0.00,,CLR,0.00,VWS V13.01,2013-10-18 14:32:00,
2013-10-18 10:37:00,58.5,38.3,30.02,West,262,7.8,7.8,47,0.00,,CLR,0.00,VWS V13.01,2013-10-18 14:37:00,
2013-10-18 10:42:00,58.8,38.7,30.02,SW,227,0.0,4.5,47,0.00,,CLR,0.00,VWS V13.01,2013-10-18 14:42:00,
2013-10-18 10:47:00,59.4,39.2,30.02,SSE,162,3.9,5.0,47,0.00,,CLR,0.00,VWS V13.01,2013-10-18 14:47:00,
2013-10-18 10:52:00,59.7,39.5,30.02,West,263,3.9,4.5,47,0.00,,CLR,0.00,VWS V13.01,2013-10-18 14:52:00,
2013-10-18 10:57:00,59.7,39.5,30.02,NW,308,0.0,0.0,47,0.00,,CLR,0.00,VWS V13.01,2013-10-18 14:57:00,
2013-10-18 11:01:00,59.7,39.5,30.02,West,274,0.0,5.0,47,0.00,,CLR,0.00,VWS V13.01,2013-10-18 15:01:00,
2013-10-18 11:06:00,59.9,39.6,30.02,West,261,3.4,4.5,47,0.00,,CLR,0.00,VWS V13.01,2013-10-18 15:06:00,
2013-10-18 11:11:00,60.1,38.1,30.02,SSW,212,2.8,5.0,44,0.00,,CLR,0.00,VWS V13.01,2013-10-18 15:11:00,
2013-10-18 11:16:00,60.1,38.1,30.02,ENE,61,2.8,4.5,44,0.00,,CLR,0.00,VWS V13.01,2013-10-18 15:16:00,
2013-10-18 11:21:00,60.1,38.1,30.02,SW,222,0.0,3.4,44,0.00,,CLR,0.00,VWS V13.01,2013-10-18 15:21:00,
2013-10-18 11:26:00,60.4,38.4,30.02,WSW,245,3.9,6.2,44,0.00,,CLR,0.00,VWS V13.01,2013-10-18 15:26:00,
2013-10-18 11:31:00,60.8,38.8,30.02,NNE,13,3.4,6.2,44,0.00,,CLR,0.00,VWS V13.01,2013-10-18 15:31:00,
2013-10-18 11:36:00,60.6,38.6,30.02,West,275,4.5,4.5,44,0.00,,CLR,0.00,VWS V13.01,2013-10-18 15:36:00,
2013-10-18 11:41:00,61.2,39.1,30.02,West,276,6.2,7.3,44,0.00,,CLR,0.00,VWS V13.01,2013-10-18 15:41:00,
2013-10-18 11:46:00,61.0,38.9,30.02,West,269,0.0,3.9,44,0.00,,CLR,0.00,VWS V13.01,2013-10-18 15:46:00,
2013-10-18 11:51:00,61.2,39.1,30.02,WSW,251,3.4,3.4,44,0.00,,CLR,0.00,VWS V13.01,2013-10-18 15:51:00,
2013-10-18 11:56:00,61.5,39.4,30.02,SSE,160,3.4,3.4,44,0.00,,CLR,0.00,VWS V13.01,2013-10-18 15:56:00,
2013-10-18 12:02:00,61.7,39.6,30.02,SSE,155,0.0,3.9,44,0.00,,CLR,0.00,VWS V13.01,2013-10-18 16:02:00,
2013-10-18 12:07:00,61.5,39.4,30.02,SE,125,5.0,7.8,44,0.00,,CLR,0.00,VWS V13.01,2013-10-18 16:07:00,
2013-10-18 12:12:00,61.5,39.4,30.02,ENE,77,2.8,2.8,44,0.00,,CLR,0.00,VWS V13.01,2013-10-18 16:12:00,
2013-10-18 12:17:00,61.3,39.3,30.02,East,95,3.4,3.9,44,0.00,,CLR,0.00,VWS V13.01,2013-10-18 16:17:00,
2013-10-18 12:22:00,61.3,39.3,30.02,ENE,71,6.7,6.7,44,0.00,,CLR,0.00,VWS V13.01,2013-10-18 16:22:00,
2013-10-18 12:27:00,61.0,38.9,30.02,NNE,22,3.4,6.2,44,0.00,,CLR,0.00,VWS V13.01,2013-10-18 16:27:00,
2013-10-18 12:32:00,61.2,39.1,30.02,ESE,123,4.5,4.5,44,0.00,,CLR,0.00,VWS V13.01,2013-10-18 16:32:00,
2013-10-18 12:37:00,61.3,39.3,30.02,NE,43,6.2,6.7,44,0.00,,CLR,0.00,VWS V13.01,2013-10-18 16:37:00,
2013-10-18 12:42:00,61.9,39.8,30.02,NNE,19,3.9,6.2,44,0.00,,CLR,0.00,VWS V13.01,2013-10-18 16:42:00,
2013-10-18 12:47:00,62.2,40.1,30.02,WSW,248,3.4,6.7,44,0.00,,CLR,0.00,VWS V13.01,2013-10-18 16:47:00,
2013-10-18 12:52:00,62.6,39.8,30.02,ENE,74,4.5,5.0,43,0.00,,CLR,0.00,VWS V13.01,2013-10-18 16:52:00,
2013-10-18 12:57:00,62.8,40.0,30.02,ESE,121,3.4,6.2,43,0.00,,CLR,0.00,VWS V13.01,2013-10-18 16:57:00,
2013-10-18 13:02:00,63.3,40.5,30.02,WNW,298,3.9,5.0,43,0.00,,CLR,0.00,VWS V13.01,2013-10-18 17:02:00,
2013-10-18 13:07:00,63.3,40.5,30.02,NNE,25,0.0,3.4,43,0.00,,CLR,0.00,VWS V13.01,2013-10-18 17:07:00,
2013-10-18 13:12:00,63.3,40.5,29.99,SW,227,3.4,3.4,43,0.00,,CLR,0.00,VWS V13.01,2013-10-18 17:12:00,
2013-10-18 13:17:00,63.7,40.8,29.99,East,94,2.8,2.8,43,0.00,,CLR,0.00,VWS V13.01,2013-10-18 17:17:00,
2013-10-18 13:21:00,63.9,41.0,29.99,East,98,0.0,6.2,43,0.00,,CLR,0.00,VWS V13.01,2013-10-18 17:21:00,
2013-10-18 13:26:00,63.7,40.8,29.99,SE,127,3.9,3.9,43,0.00,,CLR,0.00,VWS V13.01,2013-10-18 17:26:00,
2013-10-18 13:31:00,64.0,41.1,29.99,SE,131,3.9,6.2,43,0.00,,CLR,0.00,VWS V13.01,2013-10-18 17:31:00,
2013-10-18 13:35:00,64.2,41.3,29.99,East,101,3.4,6.2,43,0.00,,CLR,0.00,VWS V13.01,2013-10-18 17:35:00,
2013-10-18 13:40:00,64.4,41.4,29.99,ESE,122,2.8,4.5,43,0.00,,CLR,0.00,VWS V13.01,2013-10-18 17:40:00,
2013-10-18 13:45:00,64.6,41.6,29.99,East,88,4.5,7.3,43,0.00,,CLR,0.00,VWS V13.01,2013-10-18 17:45:00,
2013-10-18 13:50:00,64.2,41.3,29.99,NE,46,2.8,5.0,43,0.00,,CLR,0.00,VWS V13.01,2013-10-18 17:50:00,
2013-10-18 13:55:00,64.4,41.4,29.99,SSE,159,3.4,4.5,43,0.00,,CLR,0.00,VWS V13.01,2013-10-18 17:55:00,
2013-10-18 14:00:00,64.6,41.6,29.99,East,100,7.3,9.5,43,0.00,,CLR,0.00,VWS V13.01,2013-10-18 18:00:00,
2013-10-18 14:05:00,64.4,41.4,29.99,SE,127,3.9,7.8,43,0.00,,CLR,0.00,VWS V13.01,2013-10-18 18:05:00,
2013-10-18 14:10:00,64.4,41.4,29.99,East,94,3.4,5.0,43,0.00,,CLR,0.00,VWS V13.01,2013-10-18 18:10:00,
2013-10-18 14:15:00,64.4,41.4,29.96,SW,214,6.2,7.3,43,0.00,,CLR,0.00,VWS V13.01,2013-10-18 18:15:00,
2013-10-18 14:20:00,64.6,41.6,29.96,East,101,7.3,10.3,43,0.00,,CLR,0.00,VWS V13.01,2013-10-18 18:20:00,
2013-10-18 14:25:00,64.6,41.6,29.96,SE,140,7.8,10.1,43,0.00,,CLR,0.00,VWS V13.01,2013-10-18 18:25:00,
2013-10-18 14:30:00,64.8,41.8,29.96,SE,140,0.0,4.5,43,0.00,,CLR,0.00,VWS V13.01,2013-10-18 18:30:00,
2013-10-18 14:35:00,65.1,42.1,29.96,ESE,109,5.6,6.2,43,0.00,,CLR,0.00,VWS V13.01,2013-10-18 18:35:00,
2013-10-18 14:40:00,64.9,41.9,29.96,West,281,3.9,5.0,43,0.00,,CLR,0.00,VWS V13.01,2013-10-18 18:40:00,
2013-10-18 14:44:00,65.1,42.1,29.96,ENE,58,2.8,3.9,43,0.00,,CLR,0.00,VWS V13.01,2013-10-18 18:44:00,
2013-10-18 14:49:00,65.3,42.2,29.96,ESE,112,3.4,6.2,43,0.00,,CLR,0.00,VWS V13.01,2013-10-18 18:49:00,
2013-10-18 14:54:00,65.7,42.6,29.96,SSE,165,3.9,7.8,43,0.00,,CLR,0.00,VWS V13.01,2013-10-18 18:54:00,
2013-10-18 14:59:00,65.8,42.7,29.96,SE,132,6.7,6.7,43,0.00,,CLR,0.00,VWS V13.01,2013-10-18 18:59:00,
2013-10-18 15:04:00,65.7,42.6,29.96,SSE,163,7.3,10.3,43,0.00,,,0.00,VWS V13.01,2013-10-18 19:04:00,
2013-10-18 15:09:00,65.3,42.2,29.96,SSW,197,2.8,7.3,43,0.00,,,0.00,VWS V13.01,2013-10-18 19:09:00,
2013-10-18 15:14:00,65.3,42.2,29.96,SE,137,6.2,6.7,43,0.00,,,0.00,VWS V13.01,2013-10-18 19:14:00,
2013-10-18 15:19:00,65.3,42.2,29.96,South,185,3.9,3.9,43,0.00,,,0.00,VWS V13.01,2013-10-18 19:19:00,
2013-10-18 15:24:00,65.5,42.4,29.96,SSE,150,3.9,5.0,43,0.00,,,0.00,VWS V13.01,2013-10-18 19:24:00,
2013-10-18 15:29:00,65.1,42.1,29.96,SE,126,3.4,3.4,43,0.00,,,0.00,VWS V13.01,2013-10-18 19:29:00,
2013-10-18 15:34:00,65.1,42.1,29.96,SSE,148,2.8,6.2,43,0.00,,,0.00,VWS V13.01,2013-10-18 19:34:00,
2013-10-18 15:39:00,64.9,41.9,29.96,SE,135,3.9,3.9,43,0.00,,,0.00,VWS V13.01,2013-10-18 19:39:00,
2013-10-18 15:44:00,64.8,41.8,29.96,East,92,3.4,3.4,43,0.00,,,0.00,VWS V13.01,2013-10-18 19:44:00,
2013-10-18 15:49:00,64.6,41.6,29.96,East,94,4.5,4.5,43,0.00,,,0.00,VWS V13.01,2013-10-18 19:49:00,
2013-10-18 15:54:00,64.4,41.4,29.96,ESE,104,6.2,6.2,43,0.00,,,0.00,VWS V13.01,2013-10-18 19:54:00,
2013-10-18 15:59:00,64.8,41.8,29.96,ESE,123,3.9,3.9,43,0.00,,,0.00,VWS V13.01,2013-10-18 19:59:00,
2013-10-18 16:04:00,65.1,42.1,29.96,SE,134,3.9,4.5,43,0.00,,CLR,0.00,VWS V13.01,2013-10-18 20:04:00,
2013-10-18 16:09:00,65.3,42.2,29.96,SSE,151,2.8,2.8,43,0.00,,CLR,0.00,VWS V13.01,2013-10-18 20:09:00,
2013-10-18 16:14:00,65.5,42.4,29.96,SE,143,0.0,4.5,43,0.00,,CLR,0.00,VWS V13.01,2013-10-18 20:14:00,
2013-10-18 16:19:00,65.7,42.6,29.96,SSE,152,0.0,6.2,43,0.00,,CLR,0.00,VWS V13.01,2013-10-18 20:19:00,
2013-10-18 16:24:00,65.3,42.2,29.96,ESE,115,4.5,6.2,43,0.00,,CLR,0.00,VWS V13.01,2013-10-18 20:24:00,
2013-10-18 16:29:00,64.8,41.8,29.96,SSW,200,3.9,5.0,43,0.00,,CLR,0.00,VWS V13.01,2013-10-18 20:29:00,
2013-10-18 16:34:00,64.2,41.3,29.96,WSW,258,2.8,3.9,43,0.00,,CLR,0.00,VWS V13.01,2013-10-18 20:34:00,
2013-10-18 16:39:00,63.9,41.0,29.96,SW,224,0.0,3.9,43,0.00,,CLR,0.00,VWS V13.01,2013-10-18 20:39:00,
2013-10-18 16:44:00,63.5,40.6,29.96,SSE,167,6.2,6.2,43,0.00,,CLR,0.00,VWS V13.01,2013-10-18 20:44:00,
2013-10-18 16:49:00,63.1,40.3,29.96,SE,136,6.2,6.2,43,0.00,,CLR,0.00,VWS V13.01,2013-10-18 20:49:00,
2013-10-18 16:54:00,63.0,40.1,29.96,SSE,161,0.0,3.4,43,0.00,,CLR,0.00,VWS V13.01,2013-10-18 20:54:00,
2013-10-18 16:59:00,63.0,40.1,29.96,SE,144,3.9,5.0,43,0.00,,CLR,0.00,VWS V13.01,2013-10-18 20:59:00,
2013-10-18 17:05:00,63.1,40.3,29.96,ESE,109,2.8,4.5,43,0.00,,CLR,0.00,VWS V13.01,2013-10-18 21:05:00,
2013-10-18 17:10:00,63.1,40.3,29.96,SE,139,5.6,6.2,43,0.00,,CLR,0.00,VWS V13.01,2013-10-18 21:10:00,
2013-10-18 17:15:00,63.1,40.3,29.96,SSE,162,5.0,5.0,43,0.00,,CLR,0.00,VWS V13.01,2013-10-18 21:15:00,
2013-10-18 17:20:00,63.0,40.1,29.96,ESE,122,3.4,4.5,43,0.00,,CLR,0.00,VWS V13.01,2013-10-18 21:20:00,
2013-10-18 17:25:00,63.0,40.1,29.96,SSE,153,0.0,4.5,43,0.00,,CLR,0.00,VWS V13.01,2013-10-18 21:25:00,
2013-10-18 17:30:00,62.6,39.8,29.96,South,178,3.4,4.5,43,0.00,,CLR,0.00,VWS V13.01,2013-10-18 21:30:00,
2013-10-18 17:35:00,62.4,40.2,29.96,SE,133,0.0,0.0,44,0.00,,CLR,0.00,VWS V13.01,2013-10-18 21:35:00,
2013-10-18 17:40:00,62.1,39.9,29.96,ESE,115,0.0,0.0,44,0.00,,CLR,0.00,VWS V13.01,2013-10-18 21:40:00,
2013-10-18 17:45:00,61.9,39.8,29.96,East,97,0.0,0.0,44,0.00,,CLR,0.00,VWS V13.01,2013-10-18 21:45:00,
2013-10-18 17:50:00,61.5,39.4,29.96,East,97,0.0,0.0,44,0.00,,CLR,0.00,VWS V13.01,2013-10-18 21:50:00,
2013-10-18 17:55:00,61.3,39.3,29.96,East,97,0.0,0.0,44,0.00,,CLR,0.00,VWS V13.01,2013-10-18 21:55:00,
2013-10-18 17:59:00,61.0,38.9,29.96,East,97,0.0,0.0,44,0.00,,CLR,0.00,VWS V13.01,2013-10-18 21:59:00,
2013-10-18 18:04:00,60.8,38.8,29.96,East,97,0.0,0.0,44,0.00,,CLR,0.00,VWS V13.01,2013-10-18 22:04:00,
2013-10-18 18:09:00,60.6,38.6,29.96,East,97,0.0,0.0,44,0.00,,CLR,0.00,VWS V13.01,2013-10-18 22:09:00,
2013-10-18 18:14:00,60.3,38.3,29.96,East,97,0.0,0.0,44,0.00,,CLR,0.00,VWS V13.01,2013-10-18 22:14:00,
2013-10-18 18:19:00,59.9,38.0,29.96,East,97,0.0,0.0,44,0.00,,CLR,0.00,VWS V13.01,2013-10-18 22:19:00,
2013-10-18 18:24:00,59.9,38.0,29.96,East,97,0.0,0.0,44,0.00,,CLR,0.00,VWS V13.01,2013-10-18 22:24:00,
2013-10-18 18:29:00,59.5,37.6,29.96,East,97,0.0,0.0,44,0.00,,CLR,0.00,VWS V13.01,2013-10-18 22:29:00,
2013-10-18 18:34:00,59.0,37.1,29.96,East,97,0.0,0.0,44,0.00,,CLR,0.00,VWS V13.01,2013-10-18 22:34:00,
2013-10-18 18:40:00,58.1,36.3,29.96,East,97,0.0,0.0,44,0.00,,CLR,0.00,VWS V13.01,2013-10-18 22:40:00,
2013-10-18 18:45:00,57.4,35.7,29.96,East,97,0.0,0.0,44,0.00,,CLR,0.00,VWS V13.01,2013-10-18 22:45:00,
2013-10-18 18:50:00,56.8,36.8,29.96,East,97,0.0,0.0,47,0.00,,CLR,0.00,VWS V13.01,2013-10-18 22:50:00,
2013-10-18 18:55:00,56.1,36.2,29.96,East,97,0.0,0.0,47,0.00,,CLR,0.00,VWS V13.01,2013-10-18 22:55:00,
2013-10-18 19:00:00,55.6,37.2,29.96,East,97,0.0,0.0,50,0.00,,CLR,0.00,VWS V13.01,2013-10-18 23:00:00,
2013-10-18 19:05:00,54.7,36.9,29.96,East,97,0.0,0.0,51,0.00,,CLR,0.00,VWS V13.01,2013-10-18 23:05:00,
2013-10-18 19:10:00,54.0,36.3,29.96,East,97,0.0,0.0,51,0.00,,CLR,0.00,VWS V13.01,2013-10-18 23:10:00,
2013-10-18 19:15:00,53.4,36.2,29.96,East,97,0.0,0.0,52,0.00,,CLR,0.00,VWS V13.01,2013-10-18 23:15:00,
2013-10-18 19:20:00,52.9,36.7,29.96,East,97,0.0,0.0,54,0.00,,CLR,0.00,VWS V13.01,2013-10-18 23:20:00,
2013-10-18 19:25:00,52.3,36.7,29.96,East,97,0.0,0.0,55,0.00,,CLR,0.00,VWS V13.01,2013-10-18 23:25:00,
2013-10-18 19:30:00,52.0,36.3,29.99,East,97,0.0,0.0,55,0.00,,CLR,0.00,VWS V13.01,2013-10-18 23:30:00,
2013-10-18 19:35:00,51.8,36.2,29.99,East,97,0.0,0.0,55,0.00,,CLR,0.00,VWS V13.01,2013-10-18 23:35:00,
2013-10-18 19:40:00,51.6,36.9,29.99,East,97,0.0,0.0,57,0.00,,CLR,0.00,VWS V13.01,2013-10-18 23:40:00,
2013-10-18 19:45:00,51.1,36.4,29.99,SW,221,0.0,0.0,57,0.00,,CLR,0.00,VWS V13.01,2013-10-18 23:45:00,
2013-10-18 19:50:00,50.7,36.1,29.99,SW,221,0.0,0.0,57,0.00,,CLR,0.00,VWS V13.01,2013-10-18 23:50:00,
2013-10-18 19:55:00,50.2,35.5,29.99,SW,221,0.0,0.0,57,0.00,,CLR,0.00,VWS V13.01,2013-10-18 23:55:00,
2013-10-18 20:00:00,49.8,35.7,29.99,SW,221,0.0,0.0,58,0.00,,CLR,0.00,VWS V13.01,2013-10-19 00:00:00,
2013-10-18 20:05:00,49.5,35.3,29.99,SW,221,0.0,0.0,58,0.00,,CLR,0.00,VWS V13.01,2013-10-19 00:05:00,
2013-10-18 20:10:00,49.1,35.4,29.99,SW,221,0.0,0.0,59,0.00,,CLR,0.00,VWS V13.01,2013-10-19 00:10:00,
2013-10-18 20:15:00,48.9,35.7,29.99,SW,221,0.0,0.0,60,0.00,,CLR,0.00,VWS V13.01,2013-10-19 00:15:00,
2013-10-18 20:20:00,48.7,35.5,29.99,SW,221,0.0,0.0,60,0.00,,CLR,0.00,VWS V13.01,2013-10-19 00:20:00,
2013-10-18 20:25:00,48.6,36.2,29.99,SW,221,0.0,0.0,62,0.00,,CLR,0.00,VWS V13.01,2013-10-19 00:25:00,
2013-10-18 20:30:00,48.4,36.0,29.99,SW,220,0.0,0.0,62,0.00,,CLR,0.00,VWS V13.01,2013-10-19 00:30:00,
2013-10-18 20:35:00,48.4,36.0,29.99,SW,220,0.0,0.0,62,0.00,,CLR,0.00,VWS V13.01,2013-10-19 00:35:00,
2013-10-18 20:40:00,48.2,35.8,29.99,WSW,244,0.0,0.0,62,0.00,,CLR,0.00,VWS V13.01,2013-10-19 00:40:00,
2013-10-18 20:45:00,48.0,35.6,29.96,WSW,244,0.0,0.0,62,0.00,,CLR,0.00,VWS V13.01,2013-10-19 00:45:00,
2013-10-18 20:50:00,47.8,35.5,29.96,WSW,244,0.0,0.0,62,0.00,,CLR,0.00,VWS V13.01,2013-10-19 00:50:00,
2013-10-18 20:55:00,47.7,35.7,29.96,WSW,244,0.0,0.0,63,0.00,,CLR,0.00,VWS V13.01,2013-10-19 00:55:00,
2013-10-18 21:00:00,47.7,35.7,29.99,WSW,244,0.0,0.0,63,0.00,,CLR,0.00,VWS V13.01,2013-10-19 01:00:00,
2013-10-18 21:05:00,47.5,35.5,29.99,WSW,244,0.0,0.0,63,0.00,,CLR,0.00,VWS V13.01,2013-10-19 01:05:00,
2013-10-18 21:10:00,47.3,35.8,29.99,WSW,244,0.0,0.0,64,0.00,,CLR,0.00,VWS V13.01,2013-10-19 01:10:00,
2013-10-18 21:15:00,47.1,35.6,29.99,WSW,244,0.0,0.0,64,0.00,,CLR,0.00,VWS V13.01,2013-10-19 01:15:00,
2013-10-18 21:20:00,46.9,35.4,29.99,WSW,244,0.0,0.0,64,0.00,,CLR,0.00,VWS V13.01,2013-10-19 01:20:00,
2013-10-18 21:25:00,46.8,35.2,29.99,WSW,244,0.0,0.0,64,0.00,,CLR,0.00,VWS V13.01,2013-10-19 01:25:00,
2013-10-18 21:30:00,46.6,35.1,29.99,WSW,244,0.0,0.0,64,0.00,,CLR,0.00,VWS V13.01,2013-10-19 01:30:00,
2013-10-18 21:35:00,46.2,35.1,29.99,WSW,244,0.0,0.0,65,0.00,,CLR,0.00,VWS V13.01,2013-10-19 01:35:00,
2013-10-18 21:40:00,46.0,35.0,29.99,WSW,244,0.0,0.0,65,0.00,,CLR,0.00,VWS V13.01,2013-10-19 01:40:00,
2013-10-18 21:45:00,45.9,35.2,29.99,WSW,244,0.0,0.0,66,0.00,,CLR,0.00,VWS V13.01,2013-10-19 01:45:00,
2013-10-18 21:50:00,45.5,34.8,29.99,WSW,244,0.0,0.0,66,0.00,,CLR,0.00,VWS V13.01,2013-10-19 01:50:00,
2013-10-18 21:55:00,45.5,34.8,29.99,WSW,244,0.0,0.0,66,0.00,,CLR,0.00,VWS V13.01,2013-10-19 01:55:00,
2013-10-18 22:00:00,45.3,34.6,29.99,WSW,244,0.0,0.0,66,0.00,,CLR,0.00,VWS V13.01,2013-10-19 02:00:00,
2013-10-18 22:05:00,45.1,34.8,29.99,WSW,244,0.0,0.0,67,0.00,,CLR,0.00,VWS V13.01,2013-10-19 02:05:00,
2013-10-18 22:10:00,44.8,34.5,29.99,WSW,244,0.0,0.0,67,0.00,,CLR,0.00,VWS V13.01,2013-10-19 02:10:00,
2013-10-18 22:15:00,44.6,34.3,29.99,WSW,244,0.0,0.0,67,0.00,,CLR,0.00,VWS V13.01,2013-10-19 02:15:00,
2013-10-18 22:20:00,44.4,34.5,29.99,WSW,244,0.0,0.0,68,0.00,,CLR,0.00,VWS V13.01,2013-10-19 02:20:00,
2013-10-18 22:25:00,44.2,34.4,29.99,WSW,244,0.0,0.0,68,0.00,,CLR,0.00,VWS V13.01,2013-10-19 02:25:00,
2013-10-18 22:30:00,44.2,34.7,29.99,WSW,244,0.0,0.0,69,0.00,,CLR,0.00,VWS V13.01,2013-10-19 02:30:00,
2013-10-18 22:35:00,44.1,34.6,29.99,WSW,244,0.0,0.0,69,0.00,,CLR,0.00,VWS V13.01,2013-10-19 02:35:00,
2013-10-18 22:40:00,44.1,34.9,29.99,WSW,244,0.0,0.0,70,0.00,,CLR,0.00,VWS V13.01,2013-10-19 02:40:00,
2013-10-18 22:45:00,44.4,35.6,29.99,WSW,244,0.0,0.0,71,0.00,,CLR,0.00,VWS V13.01,2013-10-19 02:45:00,
2013-10-18 22:50:00,44.2,35.1,29.99,WSW,244,0.0,0.0,70,0.00,,CLR,0.00,VWS V13.01,2013-10-19 02:50:00,
2013-10-18 22:55:00,44.1,34.9,29.99,WSW,244,0.0,0.0,70,0.00,,CLR,0.00,VWS V13.01,2013-10-19 02:55:00,
2013-10-18 23:00:00,43.9,35.1,29.99,WSW,244,0.0,0.0,71,0.00,,CLR,0.00,VWS V13.01,2013-10-19 03:00:00,
2013-10-18 23:05:00,43.7,34.9,29.99,WSW,244,0.0,0.0,71,0.00,,CLR,0.00,VWS V13.01,2013-10-19 03:05:00,
2013-10-18 23:10:00,43.3,34.6,29.99,WSW,244,0.0,0.0,71,0.00,,CLR,0.00,VWS V13.01,2013-10-19 03:10:00,
2013-10-18 23:15:00,43.2,34.4,29.99,WSW,244,0.0,0.0,71,0.00,,CLR,0.00,VWS V13.01,2013-10-19 03:15:00,
2013-10-18 23:20:00,42.8,34.1,29.99,WSW,244,0.0,0.0,71,0.00,,CLR,0.00,VWS V13.01,2013-10-19 03:20:00,
2013-10-18 23:25:00,42.8,34.4,29.99,WSW,244,0.0,0.0,72,0.00,,CLR,0.00,VWS V13.01,2013-10-19 03:25:00,
2013-10-18 23:30:00,42.8,34.8,29.99,WSW,244,0.0,0.0,73,0.00,,CLR,0.00,VWS V13.01,2013-10-19 03:30:00,
2013-10-18 23:35:00,42.8,34.8,29.99,WSW,244,0.0,0.0,73,0.00,,CLR,0.00,VWS V13.01,2013-10-19 03:35:00,
2013-10-18 23:40:00,42.6,34.9,29.99,WSW,244,0.0,0.0,74,0.00,,CLR,0.00,VWS V13.01,2013-10-19 03:40:00,
2013-10-18 23:45:00,42.6,34.9,29.99,WSW,244,0.0,0.0,74,0.00,,CLR,0.00,VWS V13.01,2013-10-19 03:45:00,
2013-10-18 23:50:00,42.4,34.8,29.99,WSW,244,0.0,0.0,74,0.00,,CLR,0.00,VWS V13.01,2013-10-19 03:50:00,
2013-10-18 23:55:00,42.4,34.8,29.99,WSW,244,0.0,0.0,74,0.00,,CLR,0.00,VWS V13.01,2013-10-19 03:55:00,